FW2958 Weather Reports


Display with metric or nautical units.
time (UTC)temp
F
wind
direction
speed
MPH
gust
MPH
rain 1hr
in
rain 24hr
in
rain mn
in
humidity
%
barometer
mb
20260906084304 67 55 0.0 0.0 0.00 0.61 0.00 100 1009.7
20260906083804 68 55 0.0 0.0 0.00 0.61 0.00 100 1009.8
20260906083304 68 55 0.0 0.0 0.00 0.61 0.00 100 1009.9
20260906082805 68 55 0.0 0.0 0.00 0.61 0.00 100 1009.9
20260906081804 68 55 0.0 0.0 0.00 0.61 0.00 100 1009.9
20260906081304 68 55 0.0 0.0 0.00 0.61 0.00 100 1010.0
20260906080804 68 55 0.0 0.0 0.00 0.61 0.00 100 1010.0
20260906080304 68 55 0.0 0.0 0.00 0.61 0.00 100 1009.9
20260906075804 68 55 0.0 0.0 0.00 0.61 0.00 100 1009.8
20260906075306 68 55 0.0 0.0 0.00 0.61 0.00 100 1009.6
20260906074804 68 55 0.0 0.0 0.00 0.61 0.00 100 1009.5
20260906074304 68 55 0.0 0.0 0.00 0.61 0.00 100 1009.5
20260906073804 68 55 0.0 0.0 0.00 0.61 0.00 100 1009.6
20260906073305 68 55 0.0 0.0 0.00 0.61 0.00 100 1009.6
20260906072805 68 55 0.0 0.0 0.00 0.61 0.00 100 1009.6
20260906072306 68 55 0.0 0.0 0.00 0.61 0.00 100 1009.6
20260906071805 68 55 0.0 0.0 0.00 0.61 0.00 100 1009.6
20260906071305 68 55 0.0 0.0 0.00 0.61 0.00 100 1009.7
20260906065804 68 55 0.0 0.0 0.00 0.61 0.00 100 1009.7
20260906065305 69 55 0.0 0.0 0.00 0.61 0.00 100 1009.9
20260906064804 69 55 0.0 0.0 0.00 0.61 0.00 100 1010.0
20260906064304 69 55 0.0 0.0 0.00 0.61 0.00 100 1010.0
20260906063804 69 55 0.0 0.0 0.00 0.61 0.00 100 1010.1
20260906063304 69 55 0.0 0.0 0.00 0.61 0.00 100 1010.1
20260906062804 69 55 0.0 0.0 0.00 0.61 0.00 100 1010.2
20260906061804 69 55 0.0 0.0 0.00 0.61 0.00 100 1010.2
20260906061304 69 55 0.0 0.0 0.00 0.61 0.00 100 1010.1
20260906060804 69 55 0.0 0.0 0.00 0.61 0.00 100 1010.3
20260906060304 69 55 0.0 0.0 0.00 0.61 0.00 100 1010.4
20260906055804 69 55 0.0 0.0 0.00 0.61 0.00 100 1010.5
20260906055306 69 55 0.0 0.0 0.00 0.61 0.00 100 1010.5
20260906054804 69 55 0.0 0.0 0.00 0.61 0.00 100 1010.5
20260906053304 69 55 0.0 0.0 0.00 0.61 0.00 100 1010.6
20260906052807 69 55 0.0 0.0 0.00 0.61 0.00 100 1010.6
20260906051305 70 55 0.0 0.0 0.00 0.61 0.00 100 1010.8
20260906050805 70 55 0.0 0.0 0.00 0.61 0.00 100 1010.7
20260906050305 70 55 0.0 0.0 0.00 0.61 0.00 100 1010.7
20260906045751 70 55 0.0 0.0 0.00 0.61 0.00 100 1010.6
20260906044752 70 55 0.0 0.0 0.00 0.61 0.00 100 1010.7
20260906044252 70 55 0.0 0.0 0.00 0.61 0.00 100 1010.6
20260906043751 70 55 0.0 0.0 0.00 0.61 0.00 100 1010.6
20260906043252 70 55 0.0 0.0 0.00 0.61 0.00 100 1010.5
20260906042752 70 55 0.0 0.0 0.00 0.61 0.00 100 1010.5
20260906042252 71 55 0.0 0.0 0.01 0.61 0.00 100 1010.4
20260906041252 71 55 0.0 0.0 0.01 0.61 0.00 100 1010.5
20260906040803 71 55 0.0 0.0 0.01 0.61 0.00 100 1010.5
20260906040252 71 55 0.0 0.0 0.01 0.61 0.00 100 1010.4
20260906035751 71 55 0.0 0.0 0.01 0.61 0.61 100 1010.5
20260906035252 71 55 0.0 0.0 0.01 0.61 0.61 100 1010.6
20260906034754 71 55 0.0 0.0 0.01 0.61 0.61 100 1010.6
20260906034252 71 55 0.0 0.0 0.01 0.61 0.61 100 1010.4
20260906033251 71 55 0.0 0.0 0.01 0.61 0.61 100 1010.5
20260906032752 71 55 0.0 0.0 0.01 0.61 0.61 100 1010.6
20260906031752 71 55 0.0 0.0 0.00 0.60 0.60 99 1010.6
20260906031252 72 55 0.0 0.0 0.00 0.60 0.60 99 1010.7
20260906025252 72 323 0.0 0.0 0.00 0.60 0.60 98 1010.9
20260906024752 73 318 0.0 0.0 0.00 0.60 0.60 99 1010.7
20260906024252 73 318 0.0 0.0 0.00 0.60 0.60 99 1010.8
20260906023252 73 209 0.0 3.0 0.00 0.60 0.60 99 1011.0
20260906022751 73 155 0.0 0.0 0.00 0.60 0.60 98 1011.0
20260906022252 73 120 0.0 0.0 0.00 0.60 0.60 97 1010.6
20260906021752 73 120 0.0 0.0 0.00 0.60 0.60 97 1010.5
20260906020754 73 120 0.0 0.0 0.00 0.60 0.60 96 1010.5
20260906020252 73 120 0.0 0.0 0.00 0.60 0.60 96 1010.5
20260906015252 73 120 0.0 0.0 0.00 0.60 0.60 96 1010.5
20260906014752 73 120 0.0 0.0 0.00 0.60 0.60 96 1010.5
20260906013751 73 120 0.0 0.0 0.00 0.60 0.60 96 1010.4
20260906012752 73 120 0.0 0.0 0.00 0.60 0.60 97 1010.1
20260906012251 73 120 0.0 0.0 0.00 0.60 0.60 96 1010.1
20260906011752 73 120 0.0 0.0 0.00 0.60 0.60 96 1010.1
20260906011252 73 120 0.0 0.0 0.00 0.60 0.60 96 1010.1
20260906010752 73 120 0.0 0.0 0.00 0.60 0.60 96 1010.0
20260906005752 73 120 0.0 0.0 0.00 0.60 0.60 94 1010.0
20260906005252 73 120 0.0 0.0 0.00 0.60 0.60 94 1010.0
20260906004752 73 120 0.0 0.0 0.00 0.60 0.60 93 1010.0
20260906004252 73 120 0.0 0.0 0.00 0.60 0.60 92 1010.0
20260906003752 73 120 0.0 0.0 0.00 0.60 0.60 92 1009.9
20260906003252 74 120 0.0 0.0 0.00 0.60 0.60 92 1009.8
20260906002752 74 120 0.0 0.0 0.00 0.60 0.60 91 1009.6
20260906001752 74 120 0.0 0.0 0.00 0.60 0.60 90 1009.7
20260906001252 74 120 0.0 0.0 0.00 0.60 0.60 90 1009.6
20260906000752 75 120 0.0 0.0 0.00 0.60 0.60 89 1009.6
20260906000252 75 120 0.0 0.0 0.00 0.60 0.60 88 1009.6
20260905235252 76 120 0.0 0.0 0.00 0.60 0.60 86 1009.5
20260905234752 77 120 0.0 0.0 0.00 0.60 0.60 85 1009.4
20260905234252 78 112 0.0 0.0 0.00 0.60 0.60 83 1009.4
20260905233752 78 251 0.0 0.0 0.01 0.60 0.60 83 1009.4
20260905233252 79 251 0.0 0.0 0.01 0.60 0.60 81 1009.4
20260905232752 79 251 0.0 0.0 0.01 0.60 0.60 77 1009.4
20260905232252 80 251 0.0 0.0 0.01 0.60 0.60 76 1009.4
20260905231752 81 251 0.0 0.0 0.01 0.60 0.60 72 1009.4
20260905231252 83 241 0.0 0.0 0.01 0.60 0.60 70 1009.4
20260905230752 84 241 0.0 0.0 0.01 0.60 0.60 68 1009.4
20260905230252 85 289 0.0 0.0 0.01 0.60 0.60 67 1009.4
20260905225752 86 288 0.0 0.0 0.01 0.60 0.60 62 1009.7
20260905225252 87 288 0.0 0.0 0.01 0.60 0.60 63 1009.6
20260905224752 87 288 0.0 0.0 0.01 0.60 0.60 63 1009.6
20260905223752 88 288 0.0 0.0 0.00 0.59 0.59 54 1009.6
20260905223252 88 288 0.0 0.0 0.00 0.59 0.59 55 1009.5
20260905222752 88 323 0.0 0.0 0.01 0.59 0.59 54 1009.7
20260905222252 88 275 0.0 1.0 0.01 0.59 0.59 53 1009.7
20260905221752 88 280 0.0 0.0 0.01 0.59 0.59 52 1009.6
20260905220753 87 188 0.0 2.0 0.01 0.59 0.59 52 1009.5
20260905220253 87 278 2.0 5.0 0.01 0.59 0.59 54 1009.5
20260905215753 86 282 0.0 6.0 0.01 0.59 0.59 55 1009.6
20260905215253 86 280 2.0 9.0 0.01 0.59 0.59 55 1009.4
20260905214752 86 250 6.0 9.0 0.01 0.59 0.59 54 1009.4
20260905213752 87 264 3.0 6.0 0.02 0.59 0.59 55 1009.6
20260905213253 87 267 0.0 0.0 0.02 0.59 0.59 57 1009.5
20260905212252 86 225 4.0 7.0 0.01 0.58 0.58 57 1009.8
20260905211752 87 281 3.0 6.0 0.01 0.58 0.58 54 1009.8
20260905210252 86 267 3.0 7.0 0.02 0.58 0.58 59 1009.7
20260905205753 86 271 1.0 9.0 0.02 0.58 0.58 60 1009.7
20260905205253 86 276 2.0 7.0 0.02 0.58 0.58 60 1009.7
20260905204252 86 195 3.0 7.0 0.01 0.57 0.57 61 1009.7
20260905203752 86 272 1.0 9.0 0.02 0.57 0.57 58 1009.7
20260905203252 86 280 0.0 2.0 0.02 0.57 0.57 60 1009.7
20260905202752 86 259 5.0 7.0 0.02 0.57 0.57 57 1009.9
20260905202252 85 289 0.0 0.0 0.02 0.57 0.57 55 1010.0
20260905201752 85 293 0.0 5.0 0.03 0.57 0.57 58 1010.0
20260905201253 85 241 1.0 3.0 0.03 0.57 0.57 59 1010.2
20260905200752 84 283 1.0 3.0 0.02 0.56 0.56 60 1010.3
20260905200252 84 242 0.0 0.0 0.03 0.56 0.56 57 1010.3
20260905195752 84 244 3.0 5.0 0.03 0.56 0.56 59 1010.3
20260905195254 83 225 0.0 0.0 0.03 0.56 0.56 63 1010.3
20260905194753 83 225 0.0 0.0 0.04 0.56 0.56 60 1010.3
20260905194252 82 235 0.0 0.0 0.04 0.56 0.56 64 1010.4
20260905193752 82 270 0.0 0.0 0.03 0.55 0.55 65 1010.7
20260905193252 82 242 0.0 0.0 0.04 0.55 0.55 65 1010.7
20260905192253 80 261 2.0 3.0 0.04 0.55 0.55 66 1010.9
20260905190753 79 229 0.0 0.0 0.05 0.54 0.54 74 1010.9
20260905190252 79 229 0.0 0.0 0.04 0.53 0.53 73 1011.0
20260905185753 79 229 0.0 0.0 0.05 0.53 0.53 75 1011.1
20260905185253 78 229 0.0 0.0 0.06 0.53 0.53 76 1011.0
20260905184752 77 216 0.0 0.0 0.05 0.52 0.52 79 1011.2
20260905184252 76 166 0.0 0.0 0.06 0.52 0.52 81 1011.4
20260905183253 74 112 0.0 0.0 0.08 0.51 0.51 83 1011.5
20260905182752 74 103 0.0 0.0 0.09 0.51 0.51 86 1011.8
20260905182252 73 98 0.0 0.0 0.11 0.51 0.51 92 1011.7
20260905181253 72 85 0.0 3.0 0.14 0.50 0.50 92 1012.0
20260905180752 71 76 2.0 5.0 0.15 0.49 0.49 96 1012.1
20260905180252 71 30 0.0 3.0 0.19 0.49 0.49 99 1012.3
20260905175752 70 18 0.0 0.0 0.21 0.48 0.48 98 1012.4
20260905174752 70 18 0.0 0.0 0.28 0.47 0.47 98 1012.6
20260905173753 69 27 2.0 6.0 0.34 0.45 0.45 98 1013.0
20260905173253 69 15 0.0 1.0 0.35 0.43 0.43 96 1013.3
20260905172753 69 235 3.0 6.0 0.40 0.42 0.42 96 1013.4
20260905172253 69 94 0.0 0.0 0.40 0.40 0.40 95 1013.6
20260905171752 69 94 0.0 0.0 0.39 0.39 0.39 94 1013.6
20260905171252 69 94 0.0 0.0 0.36 0.36 0.36 94 1013.8
20260905170752 69 92 0.0 3.0 0.34 0.34 0.34 94 1014.0
20260905165752 69 163 1.0 7.0 0.27 0.27 0.27 91 1014.0
20260905165252 69 113 3.0 12.0 0.23 0.23 0.23 90 1014.3
20260905164252 70 75 4.0 12.0 0.15 0.15 0.15 86 1013.1
20260905163753 70 51 13.0 25.0 0.11 0.11 0.11 88 1013.1
20260905163253 72 20 12.0 26.0 0.08 0.08 0.08 87 1014.0
20260905162753 76 23 10.0 25.0 0.02 0.02 0.02 80 1013.7
20260905161753 88 294 0.0 10.0 0.00 0.00 0.00 60 1013.1
20260905161253 89 307 1.0 5.0 0.00 0.00 0.00 59 1012.2
20260905160753 89 294 0.0 0.0 0.00 0.00 0.00 57 1011.8
20260905160253 88 210 0.0 2.0 0.00 0.00 0.00 60 1012.0
20260905155752 88 262 1.0 6.0 0.00 0.00 0.00 60 1012.2
20260905155253 88 277 3.0 7.0 0.00 0.00 0.00 61 1012.3
20260905154253 87 269 2.0 6.0 0.00 0.00 0.00 61 1012.3
20260905153753 87 292 1.0 3.0 0.00 0.00 0.00 62 1012.2
20260905152753 87 263 3.0 5.0 0.00 0.00 0.00 63 1012.2
20260905152252 86 227 0.0 3.0 0.00 0.00 0.00 64 1012.2
20260905151752 86 217 3.0 7.0 0.00 0.00 0.00 64 1012.1
20260905151252 85 272 2.0 8.0 0.00 0.00 0.00 65 1012.2
20260905150252 85 277 3.0 9.0 0.00 0.00 0.00 64 1012.2
20260905145753 85 262 3.0 7.0 0.00 0.00 0.00 65 1012.1
20260905144753 85 243 2.0 7.0 0.00 0.00 0.00 67 1011.9
20260905144253 85 269 4.0 7.0 0.00 0.00 0.00 66 1011.9
20260905143753 84 267 1.0 6.0 0.00 0.00 0.00 69 1012.0
20260905142753 84 281 3.0 6.0 0.00 0.00 0.00 69 1012.2
20260905142255 84 288 1.0 6.0 0.00 0.00 0.00 70 1012.2
20260905141253 82 228 0.0 3.0 0.00 0.00 0.00 74 1012.2
20260905140753 81 278 0.0 0.0 0.00 0.00 0.00 77 1012.1
20260905140253 80 278 2.0 6.0 0.00 0.00 0.00 77 1012.2
20260905135753 80 279 4.0 6.0 0.00 0.00 0.00 77 1012.0
20260905135253 80 239 0.0 0.0 0.00 0.00 0.00 79 1012.0
20260905134253 79 277 0.0 0.0 0.00 0.00 0.00 81 1012.2
20260905133253 78 341 0.0 0.0 0.00 0.00 0.00 84 1012.3
20260905132753 77 341 0.0 0.0 0.00 0.00 0.00 86 1012.3
20260905131753 76 293 0.0 0.0 0.00 0.00 0.00 90 1012.3
20260905131253 76 231 0.0 0.0 0.00 0.00 0.00 91 1012.4
20260905130752 76 234 0.0 0.0 0.00 0.00 0.00 92 1012.5
20260905130253 75 234 0.0 0.0 0.00 0.00 0.00 94 1012.6
20260905125752 75 234 0.0 0.0 0.00 0.00 0.00 95 1012.7
20260905125253 75 43 0.0 0.0 0.00 0.00 0.00 97 1012.8
20260905124753 74 43 0.0 0.0 0.00 0.00 0.00 100 1012.8
20260905124252 74 43 0.0 0.0 0.00 0.00 0.00 100 1012.8
20260905123753 74 43 0.0 0.0 0.00 0.00 0.00 100 1012.9
20260905123252 73 37 0.0 0.0 0.00 0.00 0.00 100 1012.8
20260905122252 72 37 0.0 0.0 0.00 0.00 0.00 100 1012.8
20260905121753 72 36 0.0 0.0 0.00 0.00 0.00 100 1012.8
20260905121253 72 16 0.0 0.0 0.00 0.00 0.00 100 1012.8
20260905120753 71 347 0.0 0.0 0.00 0.00 0.00 100 1012.6
20260905120253 70 328 0.0 0.0 0.00 0.00 0.00 100 1012.5
20260905115753 69 328 0.0 0.0 0.00 0.00 0.00 100 1012.4
20260905114753 69 328 0.0 0.0 0.00 0.00 0.00 100 1012.3
20260905114253 69 328 0.0 0.0 0.00 0.00 0.00 100 1012.2
20260905113253 68 328 0.0 0.0 0.00 0.00 0.00 100 1012.0
20260905112753 68 328 0.0 0.0 0.00 0.00 0.00 100 1012.0
20260905112253 67 61 0.0 0.0 0.00 0.00 0.00 100 1012.0
20260905111753 67 61 0.0 0.0 0.00 0.00 0.00 100 1011.9
20260905111253 67 61 0.0 0.0 0.00 0.00 0.00 100 1011.9
20260905110253 67 61 0.0 0.0 0.00 0.00 0.00 100 1011.9
20260905105753 67 61 0.0 0.0 0.00 0.00 0.00 100 1011.9
20260905105253 67 61 0.0 0.0 0.00 0.00 0.00 100 1011.8
20260905104753 67 61 0.0 0.0 0.00 0.00 0.00 100 1011.8
20260905103753 67 61 0.0 0.0 0.00 0.00 0.00 100 1011.5
20260905103253 67 61 0.0 0.0 0.00 0.00 0.00 100 1011.6
20260905102753 67 61 0.0 0.0 0.00 0.00 0.00 100 1011.7
20260905101753 67 61 0.0 0.0 0.00 0.00 0.00 100 1011.6
20260905101253 67 61 0.0 0.0 0.00 0.00 0.00 100 1011.5
20260905100753 67 61 0.0 0.0 0.00 0.00 0.00 100 1011.5
20260905095253 67 61 0.0 0.0 0.00 0.00 0.00 100 1011.6
20260905094753 67 61 0.0 0.0 0.00 0.00 0.00 100 1011.4
20260905094254 67 61 0.0 0.0 0.00 0.00 0.00 100 1011.3
20260905093753 67 61 0.0 0.0 0.00 0.00 0.00 100 1011.3
20260905093253 67 61 0.0 0.0 0.00 0.00 0.00 100 1011.3
20260905092753 67 61 0.0 0.0 0.00 0.00 0.00 100 1011.2
20260905092253 67 61 0.0 0.0 0.00 0.00 0.00 100 1011.1
20260905091754 68 61 0.0 0.0 0.00 0.00 0.00 100 1011.0
20260905091253 68 61 0.0 0.0 0.00 0.00 0.00 100 1011.0
20260905090753 68 61 0.0 0.0 0.00 0.00 0.00 100 1011.0
20260905085753 68 61 0.0 0.0 0.00 0.00 0.00 100 1011.2
20260905085254 68 61 0.0 0.0 0.00 0.00 0.00 100 1011.2
20260905084753 68 61 0.0 0.0 0.00 0.00 0.00 100 1011.2